Theta_e
345 348 352 353 360 361 364 360 354 356 354 350 350 350 352 351 354 360 350 350 350 350 346 345 343 343 343 343 342 340 337 337 333 332 332 332 334 339 335 329 338 339 332 325 334 334 336 332 331
351 353 353 353 365 367 364 354 355 353 351 350 350 350 350 353 351 350 350 350 349 349 347 346 336 332 332 334 333 333 335 335 335 333 335 340 340 340 329 340 339 331 339 330 329 331 335 333 332
352 353 353 360 360 365 364 353 354 351 350 351 351 349 353 351 350 351 349 350 349 346 344 340 335 333 333 339 338 338 341 339 341 341 341 341 342 334 339 339 340 330 336 333 339 338 332 331 331
352 354 355 363 363 358 357 353 352 351 350 351 350 351 350 351 350 350 350 350 347 345 346 340 335 338 338 337 338 340 341 341 340 341 341 342 339 330 330 330 339 335 337 339 335 335 336 334 334
353 355 361 364 361 356 354 351 352 352 352 351 350 352 350 350 350 350 348 348 346 343 346 342 335 337 340 341 342 339 340 341 342 342 341 341 339 339 339 340 339 333 338 338 339 339 339 338 335
353 353 365 362 359 355 353 352 353 352 352 352 353 351 350 349 350 349 347 346 342 343 346 344 334 342 340 338 335 340 342 342 342 342 342 340 338 339 337 337 338 337 337 339 339 339 338 337 336
352 358 357 357 356 355 354 353 353 353 353 352 352 355 350 348 349 348 347 345 342 343 346 347 346 344 335 339 342 340 340 339 340 342 341 342 340 338 337 336 336 336 335 339 341 340 339 338 335
349 354 354 354 356 358 355 353 353 352 354 352 352 354 352 349 349 347 346 343 341 345 345 347 348 346 345 339 343 342 339 341 341 345 343 339 338 339 343 342 336 336 336 335 340 340 337 338 337
346 358 358 354 355 357 353 356 356 354 353 352 351 353 351 349 349 347 345 343 342 344 345 345 347 348 347 347 344 343 342 341 340 339 346 346 347 349 347 340 337 336 336 335 338 339 337 338 337
347 358 355 352 350 355 354 354 356 354 353 352 352 351 350 349 348 347 344 343 342 344 344 344 346 352 346 345 344 350 346 348 350 347 348 347 348 348 346 339 339 338 338 338 338 340 344 345 345
344 351 351 351 350 351 353 353 353 353 353 352 352 352 349 348 348 347 345 344 341 343 343 343 349 347 348 345 348 347 349 348 350 349 348 346 346 346 348 343 346 341 343 344 340 345 344 345 346
346 344 346 350 350 351 352 354 353 352 352 351 352 351 349 348 348 347 345 344 342 342 343 344 346 349 348 345 347 347 347 347 346 348 350 347 350 349 348 348 348 348 348 346 347 348 347 345 347
343 344 342 345 350 350 350 352 350 349 351 351 351 351 350 349 348 346 345 344 343 342 343 345 346 347 350 348 348 347 346 347 348 348 350 349 347 349 349 349 349 349 347 346 348 346 345 343 342
335 340 341 343 350 348 349 351 351 351 352 353 351 351 350 349 348 347 346 345 343 342 342 345 346 347 349 349 349 348 347 349 348 349 349 350 350 350 349 350 349 347 348 348 349 346 343 347 342
332 334 336 339 348 349 348 351 351 353 352 353 352 351 350 349 348 347 346 346 343 341 343 345 346 347 349 351 348 348 348 347 350 349 346 351 351 348 350 350 349 348 350 345 344 340 336 347 342
329 332 336 336 343 345 347 353 349 354 352 353 352 350 350 349 348 347 346 346 343 340 342 345 344 346 348 350 348 347 346 347 348 348 350 351 351 350 351 347 348 347 348 347 348 349 337 346 340
326 329 333 335 339 341 344 351 344 354 353 353 353 351 350 349 348 347 346 346 344 340 342 344 344 345 347 350 348 347 347 349 349 349 350 351 351 348 354 350 350 345 347 347 346 347 343 344 344
326 326 329 332 335 336 341 349 347 352 352 353 353 351 350 349 349 347 346 346 344 342 342 343 344 344 347 349 349 347 348 349 349 350 350 353 353 351 353 351 347 349 347 347 348 350 347 339 341
327 327 326 330 333 337 338 348 355 351 351 353 353 352 349 350 349 348 346 346 344 343 342 343 343 344 345 347 347 347 347 347 349 348 352 351 352 350 346 350 347 351 350 351 348 344 339 341 341
326 327 328 328 331 333 339 344 351 352 351 352 352 353 351 350 350 348 347 346 345 344 344 344 344 344 345 345 344 346 346 347 348 347 351 351 351 352 351 352 350 349 351 350 349 350 344 342 339
326 327 327 328 329 332 333 344 348 351 351 350 352 353 352 349 351 349 348 347 346 345 344 346 345 345 345 343 343 345 347 349 348 350 350 351 352 352 355 348 351 348 348 349 348 345 350 343 341
327 326 327 326 328 332 333 338 347 348 353 351 350 352 352 351 349 350 349 349 347 346 345 346 346 346 345 341 342 345 347 347 348 348 347 350 352 352 353 353 353 347 351 351 351 349 348 346 341
326 326 326 325 326 329 333 336 341 349 351 353 350 350 351 352 349 349 350 350 349 347 346 346 347 345 343 339 342 344 346 346 347 347 347 348 350 352 351 353 353 345 349 349 353 352 349 344 346
326 325 326 326 326 326 327 332 337 344 350 349 349 349 350 351 351 349 349 350 350 349 348 347 347 346 339 336 335 343 345 346 345 346 350 349 350 351 351 351 353 354 353 350 350 352 342 351 344
326 327 328 328 328 327 327 326 333 337 341 346 349 348 349 350 351 350 349 350 351 350 350 349 347 348 340 338 332 339 344 342 347 348 349 348 347 347 349 348 353 352 344 355 353 349 352 348 349
327 327 329 332 330 328 327 327 327 332 336 339 344 347 348 349 350 351 350 350 350 351 350 350 350 349 345 335 335 331 333 344 348 350 347 347 345 346 348 348 352 353 354 352 352 351 352 351 347
328 328 327 329 331 331 329 328 328 329 331 336 341 345 348 348 348 351 351 351 350 351 351 351 351 352 350 342 336 333 331 333 344 347 346 350 347 347 348 351 354 353 353 353 353 352 351 353 352
326 328 329 328 331 334 332 331 329 329 328 333 339 343 345 348 348 349 349 350 351 351 352 352 352 354 353 351 344 340 332 332 337 345 350 350 350 348 350 351 351 353 352 352 352 352 350 353 353
324 327 329 329 329 331 332 332 332 331 329 330 334 339 342 345 347 348 349 349 351 351 352 352 353 354 355 354 353 347 342 341 340 340 346 351 350 351 348 352 352 350 351 351 352 350 352 355 350
320 324 326 331 331 329 331 332 333 332 331 330 331 332 335 338 344 347 348 350 351 352 352 352 353 354 356 356 354 350 346 344 345 332 347 351 353 349 351 345 349 346 347 351 353 353 351 354 354
Wind_Speed
10 9 6 5 3 5 3 6 11 17 15 7 14 7 14 16 6 11 31 25 26 24 23 21 19 17 15 15 13 11 10 9 8 8 7 7 7 8 7 8 9 8 9 8 9 9 8 7 8
11 9 4 4 4 2 1 8 9 12 13 15 14 15 11 16 13 33 29 28 27 23 20 18 18 17 15 13 11 10 10 9 9 9 9 9 8 8 10 9 9 10 10 11 13 11 11 10 11
11 9 3 3 0 1 2 7 14 19 18 14 9 12 10 11 27 27 31 30 26 22 20 19 17 16 15 14 12 12 11 11 10 10 10 10 10 9 10 9 9 10 11 12 12 12 13 12 12
9 5 7 5 10 11 10 8 18 19 15 13 15 11 10 12 27 27 31 27 25 22 18 20 18 17 15 14 13 13 12 12 11 12 12 12 10 10 9 10 10 11 11 12 13 13 13 13 14
6 8 4 8 8 13 10 12 12 15 14 20 14 11 12 21 19 31 30 26 24 22 19 19 17 17 15 15 13 13 12 12 13 12 13 13 11 9 9 9 9 10 12 12 13 12 12 12 11
6 7 7 3 8 11 10 13 14 10 15 14 18 15 13 17 26 31 28 25 23 21 20 18 18 16 15 13 14 13 12 13 13 12 13 13 10 10 10 9 8 9 11 14 13 14 15 13 12
13 7 11 11 4 8 7 10 7 9 15 12 15 13 17 23 31 30 27 25 23 21 20 16 16 16 14 14 14 14 12 13 13 13 13 12 11 11 10 9 7 9 11 12 13 13 12 12 13
10 12 15 10 8 6 14 18 9 12 15 14 13 5 22 30 33 29 27 25 22 22 19 18 15 13 13 15 13 13 12 13 13 15 13 12 13 13 14 12 12 13 11 11 12 11 12 13 14
6 6 6 4 1 4 14 12 12 7 13 8 8 12 25 35 33 30 28 25 23 20 19 18 15 14 13 13 12 12 12 12 14 17 16 16 8 9 9 8 13 14 13 12 11 11 12 13 16
14 9 2 14 6 3 10 11 14 11 13 7 11 12 31 37 34 32 31 28 24 23 20 18 15 15 14 13 12 8 8 9 10 10 9 14 8 12 8 11 14 15 14 12 13 15 9 16 13
18 13 12 12 8 3 12 10 12 12 14 17 16 27 35 37 34 33 30 28 25 23 21 18 17 14 15 14 12 10 8 8 7 10 10 9 7 8 10 7 9 11 12 11 11 4 7 12 9
18 15 13 7 0 4 7 11 12 10 12 21 20 30 35 38 37 33 31 28 26 24 21 19 18 16 13 12 12 10 10 9 7 8 9 8 8 5 8 10 6 8 1 7 7 5 4 4 7
20 19 8 13 6 8 5 11 8 9 11 17 24 30 34 36 35 31 29 27 26 25 22 20 18 18 12 14 10 11 10 10 13 6 8 4 6 6 4 6 5 4 11 7 4 5 10 8 5
13 21 16 12 12 11 11 9 10 15 13 19 24 30 32 35 35 32 30 28 26 25 23 21 18 18 14 13 12 10 10 14 9 8 7 8 8 7 5 4 2 3 4 12 3 3 3 4 7
18 11 16 19 16 9 14 16 15 19 18 21 23 27 31 34 33 31 30 29 27 26 24 22 19 17 15 12 14 12 10 9 7 8 8 7 6 8 6 4 3 5 1 5 4 6 7 3 3
18 18 18 20 20 18 15 16 19 22 21 22 24 26 31 32 31 29 29 28 26 25 24 22 20 18 16 14 14 12 10 9 9 7 7 8 7 10 7 4 5 3 3 6 8 5 11 3 10
14 16 22 19 24 18 21 10 4 14 22 22 25 26 30 32 31 30 29 28 27 26 25 24 22 20 18 16 14 13 12 11 10 10 9 6 6 5 2 6 4 7 4 2 3 3 8 7 7
18 19 20 22 17 19 20 9 21 37 23 23 25 27 29 32 33 31 30 28 27 26 25 24 23 22 20 17 15 14 12 10 9 8 7 6 5 4 4 3 4 6 3 3 3 4 4 8 3
19 17 21 18 20 16 21 19 21 21 23 23 24 27 29 32 33 31 31 30 29 27 26 26 25 24 23 19 18 16 15 14 12 10 8 7 6 5 6 4 2 7 3 2 4 3 11 6 4
22 15 15 19 14 16 18 21 15 17 20 24 25 25 28 30 33 34 33 32 32 30 28 28 28 27 26 21 19 16 15 14 12 10 9 9 7 7 4 1 5 5 2 5 6 4 9 6 6
20 20 16 15 12 11 19 21 22 17 24 22 23 23 26 30 35 36 36 35 34 33 32 31 31 29 27 22 20 18 17 15 13 14 10 10 9 7 7 6 6 5 8 3 5 4 6 4 5
20 18 19 18 17 15 20 16 21 18 18 20 25 25 27 31 33 36 37 36 37 36 33 32 33 32 28 29 22 22 20 18 16 14 12 12 11 9 7 6 6 6 6 7 5 6 5 6 5
19 16 19 19 17 17 20 18 18 26 24 24 23 28 28 31 34 37 40 39 38 36 35 34 35 35 31 33 25 25 22 18 16 15 16 15 12 12 10 8 7 6 6 8 7 8 10 5 4
18 18 19 16 16 18 23 22 21 18 30 25 27 28 30 32 34 35 36 36 36 36 35 34 36 38 37 35 34 29 26 22 19 18 16 16 13 13 13 10 10 7 7 6 6 7 11 9 8
17 20 14 14 16 18 24 24 20 20 22 28 26 33 32 32 33 35 36 38 38 40 40 38 40 41 42 40 38 36 31 28 21 19 19 17 15 14 15 14 12 9 8 7 8 8 9 11 8
27 22 15 26 16 19 24 25 23 25 21 28 33 36 35 32 34 35 37 39 41 43 43 42 42 43 44 45 42 41 39 28 25 24 20 19 17 15 14 15 14 12 10 8 10 6 8 8 10
22 26 26 27 23 20 20 27 22 26 27 25 14 29 36 37 33 35 37 38 39 41 45 47 45 46 45 47 47 44 42 38 28 26 26 20 20 15 16 15 14 15 13 13 12 9 9 9 9
22 17 23 19 25 25 20 24 19 24 20 27 19 16 27 39 36 35 36 38 38 39 42 44 44 44 46 45 47 46 45 41 37 31 27 26 21 22 13 17 16 16 16 16 17 12 12 12 10
17 21 15 18 23 19 17 15 14 23 22 21 26 25 26 26 34 35 35 36 38 37 37 41 44 43 43 42 43 46 45 40 41 37 36 30 27 24 25 18 16 16 17 18 19 18 13 12 11
26 20 27 15 21 21 19 12 11 16 20 21 25 35 34 29 29 33 32 34 36 38 38 39 41 43 42 42 45 46 45 43 38 45 37 31 30 29 28 24 22 18 18 19 19 18 17 17 15
Wind_Direction
161 146 175 205 256 231 339 86 149 132 108 130 129 120 95 53 37 103 139 141 140 141 147 141 145 145 145 144 147 149 147 154 156 148 139 129 124 120 104 100 91 84 75 83 92 97 122 112 118
167 177 197 239 254 120 98 98 91 98 110 112 97 111 118 68 89 129 135 141 142 138 137 143 144 146 144 141 146 144 143 149 147 141 133 123 120 105 104 100 89 81 83 86 94 97 102 101 115
177 194 215 244 241 334 144 152 103 111 113 123 93 80 36 84 128 131 141 141 138 139 143 151 145 143 142 141 142 142 140 137 136 133 127 122 112 111 104 96 86 79 90 91 98 100 103 102 112
180 217 244 253 216 225 90 148 114 127 144 87 126 81 85 117 137 138 143 141 140 144 148 144 143 142 140 138 136 138 135 133 132 133 129 115 113 107 105 99 89 87 92 92 98 99 107 103 98
226 260 264 249 195 88 137 147 135 143 132 124 145 99 103 134 143 144 145 146 145 146 145 142 143 139 137 137 134 135 132 129 128 129 128 120 117 108 97 91 95 96 93 94 100 96 107 102 101
241 220 259 312 309 114 145 137 134 143 138 112 111 111 134 148 150 150 148 149 148 148 141 141 142 140 141 136 136 134 135 129 125 125 125 127 118 104 98 90 86 100 104 103 105 95 98 99 97
242 273 275 224 215 136 136 150 115 152 127 151 130 112 133 156 155 154 152 151 150 146 147 144 142 140 138 138 134 131 132 129 131 123 124 120 116 102 82 77 90 111 115 111 103 100 101 92 98
264 281 274 314 308 55 134 120 184 131 95 115 141 163 156 158 159 157 156 154 151 151 149 146 146 140 136 141 136 134 133 127 125 120 115 110 101 85 77 63 88 109 118 119 113 103 101 99 98
226 254 265 262 158 171 140 142 121 87 134 139 177 150 158 158 159 160 159 158 155 156 154 152 147 146 142 144 142 139 132 124 120 112 101 101 91 98 90 112 95 105 117 121 114 109 110 104 93
230 225 57 236 24 152 137 139 132 167 154 153 159 130 152 159 162 165 165 163 162 160 160 158 158 153 146 146 132 136 137 117 117 140 95 107 143 124 117 102 99 101 106 109 106 112 142 138 113
218 259 276 315 19 63 151 148 140 182 183 160 154 148 157 162 166 171 169 168 167 164 163 162 155 153 150 171 140 149 146 148 163 152 125 143 137 136 122 103 101 96 98 108 96 87 73 77 114
255 247 263 328 277 344 193 160 169 134 265 136 146 156 161 166 169 172 172 170 169 168 167 166 166 163 159 151 153 159 156 155 154 164 142 157 139 139 187 137 119 146 65 87 177 115 86 44 74
226 259 221 232 177 286 172 200 149 184 86 118 146 157 165 169 171 174 174 173 173 171 171 170 171 168 166 162 163 164 161 155 160 164 151 189 148 156 123 149 143 222 159 131 124 143 171 143 81
230 236 252 234 226 184 252 187 180 146 134 138 153 163 169 174 174 175 177 175 177 175 175 176 175 173 171 160 169 163 163 180 148 162 174 155 147 153 152 132 151 98 330 102 79 186 120 115 122
253 247 236 240 219 198 223 214 197 134 153 153 160 168 172 178 178 178 179 178 180 179 179 180 178 178 175 171 173 168 173 174 163 181 215 165 132 169 143 173 101 213 59 183 154 150 123 100 97
231 242 247 211 221 222 225 224 183 154 165 162 163 171 176 181 181 182 183 182 182 181 183 183 180 184 178 176 175 174 183 179 175 170 159 154 169 157 153 170 126 165 114 207 147 160 159 106 123
209 228 224 235 202 221 215 225 52 181 176 165 167 171 179 182 185 187 187 186 185 184 186 185 183 186 181 183 179 176 190 176 172 173 187 181 160 157 87 149 162 128 128 141 153 215 131 106 157
210 217 237 219 202 211 218 216 133 221 178 167 169 172 182 186 188 187 189 189 188 187 189 187 187 188 187 187 181 179 192 181 180 195 190 177 186 195 172 116 204 118 133 185 114 81 124 141 109
262 226 233 234 215 205 228 214 148 184 174 168 172 177 184 188 190 189 191 191 190 191 190 190 190 191 189 186 185 186 189 182 184 184 188 203 179 197 176 158 125 136 169 104 138 132 155 139 158
252 256 252 241 214 212 215 236 169 181 183 175 179 180 185 187 187 191 193 194 194 193 193 194 192 195 193 188 187 187 185 187 194 197 206 194 194 196 178 172 127 174 182 173 171 222 152 159 200
229 240 239 251 225 247 241 234 214 184 184 185 186 187 188 188 188 192 195 196 195 196 196 197 194 198 197 189 188 189 191 194 198 199 211 202 195 199 175 187 197 179 148 185 158 199 210 166 196
235 220 255 253 249 223 219 238 217 170 201 188 188 190 189 190 194 193 196 198 199 199 198 199 199 198 201 183 195 193 189 193 196 199 202 203 194 197 206 200 193 172 170 185 178 184 200 154 167
241 240 222 245 249 248 238 226 245 189 208 186 195 190 198 191 193 194 198 200 200 199 200 200 203 202 199 198 191 200 191 199 196 193 196 194 204 192 202 209 211 196 152 179 175 190 173 200 179
236 242 250 235 234 239 235 244 225 214 199 212 183 196 198 194 195 198 199 198 200 201 202 202 204 206 204 209 194 200 202 195 202 199 199 200 203 203 200 208 203 207 193 209 188 197 186 181 195
216 224 223 225 220 233 224 231 241 219 228 206 194 191 197 200 196 199 197 197 199 200 202 202 204 208 211 210 209 201 200 195 202 206 202 202 205 209 223 211 212 216 198 199 203 199 204 208 200
212 224 224 218 216 227 230 225 225 245 252 230 217 188 193 200 197 201 200 200 200 200 200 201 203 210 213 210 215 212 212 207 201 206 206 207 210 214 217 241 212 209 218 211 230 207 195 219 205
231 216 242 256 238 237 215 220 235 215 234 249 264 195 188 192 201 201 203 204 203 202 202 202 203 208 214 213 214 218 217 212 210 208 209 208 213 212 213 219 222 214 216 214 224 206 219 226 207
260 258 221 236 248 253 236 222 208 210 216 224 226 233 197 196 190 203 203 205 206 206 206 205 205 207 212 209 214 216 220 219 208 208 212 210 211 212 211 219 217 218 217 219 215 211 216 229 211
224 246 255 247 231 245 246 234 232 196 199 221 218 207 229 218 190 201 203 205 206 207 207 208 207 207 210 210 209 213 218 219 216 211 214 209 214 214 224 214 223 220 219 219 220 204 214 227 219
244 246 232 239 228 234 253 239 289 201 185 205 231 219 219 224 215 202 205 203 203 206 207 208 208 208 211 209 207 213 214 215 216 214 212 219 216 222 222 226 228 230 221 220 220 219 220 220 219